sat.trackr.live / text

‹ back to catalog

STARLINK-35639

NORAD 66382 · 2025-257C

PAYLOAD ACTIVE UNKNOWN

§ Identity

Operator
Country
US
Launch date
2025-11-09
Launch site
AFETR
Launch vehicle
Mass (kg)
RCS (m²)

Purposes: comms

External: N2YO · Heavens-Above · Gunter

§ Orbital elements

Epoch: 2026-05-24T14:48:26.201952Z

Period
94.10 min
Inclination
53.1590°
Eccentricity
0.0001065
Mean motion
15.30207199 rev/d
Perigee alt
474.5 km
Apogee alt
475.9 km
Semi-major
6,853.3 km
B*
5.5342e-4
RAAN
224.6819°
Arg perigee
80.0451°
Mean anomaly
280.0670°
Rev number
3,135

§ Raw data

STARLINK-356391 66382U 25257C   26144.61696993  .00016071  00000+0  55342-3 0  99982 66382  53.1590 224.6819 0001065  80.0451 280.0670 15.30207199 31354

JSON: /api/v1/satellites/66382 · /tle

For live sub-satellite position, see the globe view (requires WebGL).

§ Visibility from observer

Set your observer location to see the next 7 days of passes ≥ 10°. The values pass through the URL so the page stays shareable.

No JS? Fill the form by hand. The geolocation button needs JavaScript.